📊 Raw Sensor Data

Showing records 47726 to 47750 of 85,090 total

ID Distance (ft) Battery V Battery A Int Temp (°F) Int Humid (%) Ext Temp (°F) Solar V RSSI SNR Time Stamp
37377 -- 3.85 -5 53 43 53 0.00 -77 8 04/10/2025 12:15 AM
37376 -- 3.75 -5 55 43 56 0.00 -77 7 04/10/2025 12:01 AM
37375 -- 3.76 -5 56 42 58 0.10 -77 8 04/09/2025 11:45 PM
37374 -- 3.80 -5 58 42 59 0.00 -77 8 04/09/2025 11:30 PM
37373 -- 3.80 -5 59 42 60 0.00 -76 8 04/09/2025 11:15 PM
37372 -- 3.81 -5 59 42 60 0.00 -77 8 04/09/2025 11:00 PM
37371 -- 3.86 -5 60 42 61 0.00 -77 7 04/09/2025 10:46 PM
37370 -- 3.86 -5 60 42 63 0.00 -78 8 04/09/2025 10:30 PM
37369 15.5 3.86 -5 61 43 63 0.00 -77 8 04/09/2025 10:16 PM
37368 -- 3.81 -5 61 43 62 0.10 -77 8 04/09/2025 10:00 PM
37367 -- 3.81 -5 61 44 62 0.00 -78 8 04/09/2025 09:45 PM
37366 -- 3.81 -5 62 44 62 0.00 -76 8 04/09/2025 09:31 PM
37365 -- 3.81 -5 64 44 64 0.00 -76 8 04/09/2025 09:15 PM
37364 -- 3.81 -5 65 45 66 0.00 -76 8 04/09/2025 09:00 PM
37363 -- 3.81 -5 65 46 67 0.00 -76 8 04/09/2025 08:45 PM
37362 -- 3.87 -5 66 47 67 0.00 -76 7 04/09/2025 08:30 PM
37361 -- 3.81 -5 69 49 69 0.00 -76 8 04/09/2025 08:00 PM
37360 -- 3.86 -9 72 50 71 2.10 -76 8 04/09/2025 07:46 PM
37359 -- 3.73 -6 76 51 73 4.40 -76 8 04/09/2025 07:30 PM
37358 -- 3.90 6 81 49 76 4.50 -76 9 04/09/2025 07:15 PM
37357 -- 3.82 -11 85 48 78 4.50 -76 8 04/09/2025 07:00 PM
37356 -- 4.08 33 90 44 84 4.50 -76 8 04/09/2025 06:31 PM
37355 -- 3.98 0 91 44 83 5.10 -76 8 04/09/2025 06:15 PM
37354 -- 3.84 0 90 44 81 5.10 -76 9 04/09/2025 05:45 PM
37353 -- 3.85 0 92 43 82 5.10 -76 9 04/09/2025 05:30 PM